• In Czech Republic
  • List of Countries
  • For 7 days
  • Water Temperature
  • Satellite Maps
  • Weather Map
  • Weather Widgets
  • user-avatar
    Login

    Hourly Weather Wysokie Mazowieckie

    Today, 21 September, Friday

    Time Temperature Precipitation Wind Pressure Humidity
    00:00 +19°C° 0 mm 2 mps 750 mmHg 66%
    01:00 +19°C° 0 mm 2 mps 750 mmHg 67%
    02:00 +18°C° 0 mm 2 mps 750 mmHg 68%
    03:00 +18°C° 0 mm 2 mps 750 mmHg 69%
    04:00 +18°C° 0 mm 2 mps 750 mmHg 70%
    05:00 +17°C° 0 mm 2 mps 749 mmHg 70%
    06:00 +18°C° 0 mm 3 mps 749 mmHg 68%
    07:00 +18°C° 0 mm 3 mps 749 mmHg 66%
    08:00 +19°C° 0 mm 3 mps 749 mmHg 64%
    09:00 +21°C° 0 mm 3 mps 749 mmHg 58%
    10:00 +23°C° 0 mm 4 mps 749 mmHg 51%
    11:00 +26°C° 0 mm 4 mps 749 mmHg 45%
    12:00 +27°C° 0 mm 5 mps 748 mmHg 43%
    13:00 +27°C° 0 mm 5 mps 748 mmHg 40%
    14:00 +28°C° 0 mm 6 mps 747 mmHg 37%
    15:00 +27°C° 0 mm 5 mps 747 mmHg 40%
    16:00 +27°C° 0 mm 5 mps 746 mmHg 42%
    17:00 +26°C° 0 mm 4 mps 746 mmHg 45%
    18:00 +25°C° 0 mm 5 mps 745 mmHg 49%
    19:00 +22°C° 0 mm 5 mps 745 mmHg 52%
    20:00 +21°C° 0 mm 5 mps 744 mmHg 56%
    21:00 +21°C° 0 mm 5 mps 744 mmHg 57%
    22:00 +21°C° 0 mm 6 mps 744 mmHg 58%
    23:00 +21°C° 0 mm 6 mps 743 mmHg 59%

    Tomorrow, 22 September, Saturday

    Time Temperature Precipitation Wind Pressure Humidity
    00:00 +20°C° 0 mm 6 mps 744 mmHg 59%
    01:00 +20°C° 0 mm 6 mps 744 mmHg 60%
    02:00 +20°C° 0 mm 6 mps 744 mmHg 61%
    03:00 +17°C° 0.5 mm 6 mps 744 mmHg 68%
    04:00 +15°C° 0.5 mm 6 mps 745 mmHg 76%
    05:00 +14°C° 0.5 mm 7 mps 745 mmHg 84%
    06:00 +13°C° 0.6 mm 6 mps 746 mmHg 84%
    07:00 +13°C° 0.6 mm 5 mps 747 mmHg 84%
    08:00 +12°C° 0.6 mm 4 mps 748 mmHg 84%
    09:00 +12°C° 0 mm 5 mps 748 mmHg 79%
    10:00 +13°C° 0 mm 5 mps 748 mmHg 73%
    11:00 +14°C° 0 mm 6 mps 748 mmHg 67%
    12:00 +14°C° 0 mm 6 mps 748 mmHg 62%
    13:00 +15°C° 0 mm 6 mps 748 mmHg 57%
    14:00 +15°C° 0 mm 6 mps 748 mmHg 51%
    15:00 +15°C° 0.3 mm 5 mps 748 mmHg 53%
    16:00 +15°C° 0.3 mm 5 mps 748 mmHg 55%
    17:00 +15°C° 0.3 mm 5 mps 747 mmHg 57%
    18:00 +13°C° 0 mm 4 mps 748 mmHg 62%
    19:00 +12°C° 0 mm 4 mps 748 mmHg 67%
    20:00 +10°C° 0 mm 3 mps 748 mmHg 73%
    21:00 +10°C° 0 mm 3 mps 748 mmHg 74%
    22:00 +10°C° 0 mm 3 mps 748 mmHg 76%
    23:00 +9°C° 0 mm 3 mps 748 mmHg 78%

    Day after tomorrow, 23 September, Sunday

    Time Temperature Precipitation Wind Pressure Humidity
    00:00 +8°C° 0 mm 4 mps 748 mmHg 79%
    01:00 +8°C° 0 mm 4 mps 748 mmHg 80%
    02:00 +8°C° 0 mm 4 mps 748 mmHg 81%
    03:00 +8°C° 0 mm 4 mps 748 mmHg 82%
    04:00 +7°C° 0 mm 4 mps 748 mmHg 83%
    05:00 +7°C° 0 mm 4 mps 748 mmHg 84%
    06:00 +8°C° 0 mm 5 mps 748 mmHg 81%
    07:00 +8°C° 0 mm 6 mps 749 mmHg 77%
    08:00 +9°C° 0 mm 7 mps 749 mmHg 74%
    09:00 +10°C° 0 mm 7 mps 749 mmHg 67%
    10:00 +12°C° 0 mm 7 mps 749 mmHg 61%
    11:00 +14°C° 0 mm 7 mps 749 mmHg 55%
    12:00 +15°C° 0 mm 7 mps 749 mmHg 52%
    13:00 +15°C° 0 mm 7 mps 749 mmHg 49%
    14:00 +16°C° 0 mm 7 mps 749 mmHg 46%
    15:00 +16°C° 0 mm 7 mps 749 mmHg 46%
    16:00 +15°C° 0 mm 6 mps 749 mmHg 47%
    17:00 +15°C° 0 mm 5 mps 748 mmHg 48%
    18:00 +14°C° 0 mm 4 mps 748 mmHg 51%
    19:00 +12°C° 0 mm 4 mps 748 mmHg 53%
    20:00 +11°C° 0 mm 3 mps 748 mmHg 56%
    21:00 +11°C° 0 mm 3 mps 747 mmHg 55%
    22:00 +11°C° 0 mm 3 mps 747 mmHg 54%
    23:00 +11°C° 0 mm 3 mps 746 mmHg 53%

    24 September, Monday

    Time Temperature Precipitation Wind Pressure Humidity
    00:00 +11°C° 0.3 mm 3 mps 745 mmHg 59%
    01:00 +10°C° 0.3 mm 3 mps 744 mmHg 66%
    02:00 +10°C° 0.3 mm 3 mps 743 mmHg 72%
    03:00 +10°C° 1.7 mm 4 mps 742 mmHg 78%
    04:00 +9°C° 1.7 mm 5 mps 740 mmHg 84%
    05:00 +9°C° 1.7 mm 6 mps 738 mmHg 90%
    06:00 +9°C° 4.5 mm 7 mps 736 mmHg 90%
    07:00 +10°C° 4.5 mm 7 mps 734 mmHg 91%
    08:00 +10°C° 4.5 mm 7 mps 733 mmHg 92%
    09:00 +12°C° 2.6 mm 8 mps 731 mmHg 90%
    10:00 +13°C° 2.6 mm 9 mps 730 mmHg 88%
    11:00 +16°C° 2.6 mm 10 mps 728 mmHg 85%
    12:00 +16°C° 0.7 mm 9 mps 728 mmHg 83%
    13:00 +16°C° 0.7 mm 9 mps 727 mmHg 81%
    14:00 +16°C° 0.7 mm 9 mps 726 mmHg 79%
    15:00 +13°C° 1 mm 10 mps 727 mmHg 81%
    16:00 +11°C° 1 mm 11 mps 728 mmHg 83%
    17:00 +8°C° 1 mm 11 mps 730 mmHg 85%
    18:00 +7°C° 0.6 mm 12 mps 731 mmHg 84%
    19:00 +7°C° 0.6 mm 12 mps 733 mmHg 83%
    20:00 +5°C° 0.6 mm 13 mps 735 mmHg 82%
    21:00 +5°C° 0.5 mm 13 mps 737 mmHg 82%
    22:00 +5°C° 0.5 mm 12 mps 739 mmHg 81%
    23:00 +5°C° 0.5 mm 12 mps 741 mmHg 81%

    25 September, Tuesday

    Time Temperature Precipitation Wind Pressure Humidity
    00:00 +6°C° 0.1 mm 11 mps 742 mmHg 79%
    01:00 +6°C° 0.1 mm 10 mps 744 mmHg 78%
    02:00 +6°C° 0.1 mm 10 mps 745 mmHg 77%
    03:00 +5°C° 0 mm 9 mps 746 mmHg 76%
    04:00 +5°C° 0 mm 9 mps 747 mmHg 76%
    05:00 +5°C° 0 mm 9 mps 748 mmHg 75%
    06:00 +5°C° 0 mm 9 mps 749 mmHg 73%
    07:00 +6°C° 0 mm 9 mps 750 mmHg 71%
    08:00 +6°C° 0 mm 9 mps 750 mmHg 69%
    09:00 +7°C° 0.1 mm 10 mps 751 mmHg 63%
    10:00 +8°C° 0.1 mm 10 mps 752 mmHg 57%
    11:00 +9°C° 0.1 mm 10 mps 752 mmHg 50%
    12:00 +11°C° 0 mm 10 mps 752 mmHg 48%
    13:00 +11°C° 0 mm 10 mps 752 mmHg 45%
    14:00 +12°C° 0 mm 9 mps 752 mmHg 42%
    15:00 +12°C° 0 mm 8 mps 752 mmHg 46%
    16:00 +11°C° 0 mm 7 mps 751 mmHg 49%
    17:00 +11°C° 0 mm 6 mps 751 mmHg 52%
    18:00 +10°C° 0.5 mm 7 mps 750 mmHg 61%
    19:00 +9°C° 0.5 mm 8 mps 750 mmHg 70%
    20:00 +6°C° 0.5 mm 9 mps 749 mmHg 79%
    21:00 +6°C° 0.4 mm 8 mps 749 mmHg 81%
    22:00 +6°C° 0.4 mm 7 mps 748 mmHg 82%
    23:00 +7°C° 0.4 mm 6 mps 748 mmHg 83%

    26 September, Wednesday

    Time Temperature Precipitation Wind Pressure Humidity
    00:00 +7°C° 0.1 mm 6 mps 748 mmHg 84%
    01:00 +5°C° 0.1 mm 6 mps 748 mmHg 85%
    02:00 +5°C° 0.1 mm 6 mps 749 mmHg 86%
    03:00 +5°C° 0.2 mm 6 mps 749 mmHg 87%
    04:00 +5°C° 0.2 mm 6 mps 750 mmHg 88%
    05:00 +5°C° 0.2 mm 6 mps 751 mmHg 88%
    06:00 +6°C° 0 mm 5 mps 752 mmHg 89%
    07:00 +6°C° 0 mm 5 mps 753 mmHg 89%
    08:00 +6°C° 0 mm 4 mps 754 mmHg 89%
    09:00 +8°C° 0 mm 4 mps 754 mmHg 82%
    10:00 +9°C° 0 mm 5 mps 755 mmHg 75%
    11:00 +10°C° 0 mm 5 mps 756 mmHg 68%
    12:00 +12°C° 0.1 mm 5 mps 756 mmHg 64%
    13:00 +13°C° 0.1 mm 6 mps 756 mmHg 60%
    14:00 +14°C° 0.1 mm 6 mps 756 mmHg 56%
    15:00 +13°C° 0.1 mm 5 mps 756 mmHg 57%
    16:00 +13°C° 0.1 mm 5 mps 756 mmHg 59%
    17:00 +13°C° 0.1 mm 4 mps 756 mmHg 60%
    18:00 +11°C° 0 mm 4 mps 757 mmHg 65%
    19:00 +10°C° 0 mm 3 mps 757 mmHg 69%
    20:00 +8°C° 0 mm 3 mps 757 mmHg 74%
    21:00 +8°C° 0 mm 2 mps 757 mmHg 76%
    22:00 +7°C° 0 mm 2 mps 758 mmHg 77%
    23:00 +7°C° 0 mm 2 mps 758 mmHg 79%
    Show more